Location: Chandolas
(44.4033°N, 4.2533°E)
Time: 16:48:45
(UTC+00:00)

STARLINK-32 - Pass Details

Date: 15 November 2019
Orbit: 529 x 530 km, 53.0° (Epoch: 09 December)

Event Time Altitude Azimuth Distance (km) Brightness Sun altitude
Rises 05:55:25 0° 226° (SW) 2,652 6.8 -8.0°
Reaches altitude 10° 05:57:38 10° 223° (SW) 1,766 6.0 -7.6°
Maximum altitude 06:01:36 64° 142° (SE) 586 4.0 -6.9°
Drops below altitude 10° 06:05:36 10° 61° (ENE) 1,776 6.9 -6.3°
Sets 06:07:49 0° 58° (ENE) 2,668 7.7 -5.9°
